Orbital Elements at Epoch 2459200.5 (2020-Dec-17.0) TDB
Reference: JPL 15 (heliocentric ecliptic J2000)
Element | Value | Uncertainty (1-sigma) | Units |
e | .2618557476127913 | 4.3742e-08 | |
a | 2.331045012504227 | 9.3904e-09 | au |
q | 1.720647478035864 | 1.0314e-07 | au |
i | 2.859452379421068 | 5.1186e-06 | deg |
node | 298.7725182810207 | 8.5094e-05 | deg |
peri | 23.19479934640768 | 8.5583e-05 | deg |
M | 272.5886761612781 | 1.0341e-05 | deg |
tp | 2459516.138240297646 (2021-Oct-28.63824030) | 3.8665e-05 | TDB |
period | 1299.943319893024 3.56 | 7.8551e-06 2.151e-08 | d yr |
n | .2769351513184631 | 1.6734e-09 | deg/d |
Q | 2.94144254697259 | 1.1849e-08 | au |
|
| | Orbit Determination Parameters
Additional Information
|